This is the latest recevied weather packets stored in our database for station/object CE4RG-12. If no packets are shown the sender has not sent any weather packets the latest 10 day(s).
| Time | Temp. | Humidity | Pressure | Rain* | Wind** | Luminosity | Snow |
|---|---|---|---|---|---|---|---|
| 1777569852 | 23.89° C | 43% | 954.7 hPa | - | - | - | - |
| 1777569252 | 23.33° C | 44% | 954.9 hPa | - | - | - | - |
| 1777568651 | 23.33° C | 44% | 954.8 hPa | - | - | - | - |
| 1777568050 | 23.33° C | 44% | 955 hPa | - | - | - | - |
| 1777567450 | 22.78° C | 44% | 955.1 hPa | - | - | - | - |
| 1777566850 | 22.78° C | 45% | 955.1 hPa | - | - | - | - |
| 1777566250 | 22.78° C | 45% | 955.2 hPa | - | - | - | - |
| 1777565650 | 22.22° C | 45% | 955.4 hPa | - | - | - | - |
| 1777565050 | 22.22° C | 45% | 955.4 hPa | - | - | - | - |
| 1777564624 | 21.67° C | 46% | 955.4 hPa | - | - | - | - |
| 1777564450 | 21.67° C | 46% | 955.4 hPa | - | - | - | - |
| 1777563850 | 21.67° C | 46% | 955.4 hPa | - | - | - | - |
| 1777563250 | 21.67° C | 46% | 955.4 hPa | - | - | - | - |
| 1777562682 | 21.11° C | 46% | 955.4 hPa | - | - | - | - |
| 1777562649 | 21.11° C | 46% | 955.4 hPa | - | - | - | - |
| 1777562049 | 21.11° C | 46% | 955.3 hPa | - | - | - | - |
| 1777561449 | 21.11° C | 47% | 955.2 hPa | - | - | - | - |
| 1777560849 | 20.56° C | 47% | 954.9 hPa | - | - | - | - |
| 1777560249 | 20.56° C | 47% | 954.9 hPa | - | - | - | - |
| 1777559649 | 20.56° C | 47% | 954.7 hPa | - | - | - | - |
| 1777559049 | 20.56° C | 47% | 954.7 hPa | - | - | - | - |
| 1777558449 | 20° C | 47% | 954.6 hPa | - | - | - | - |
| 1777557849 | 20° C | 47% | 954.4 hPa | - | - | - | - |
| 1777557249 | 20° C | 48% | 954.5 hPa | - | - | - | - |
| 1777556649 | 18.89° C | 48% | 953.1 hPa | - | - | - | - |
* Rain since midnight (hover to see other rain measurements)
** Current wind speed in m/s (hover to see current wind gust speed)